Location: Champs
(48.8539°N, 2.6040°E)
Time: 10:02:17
(UTC+00:00)

USA 308 - Pass Details

Date: 06 June 2022
Orbit: 549 x 558 km, 54.0° (Epoch: 14 June)

Event Time Altitude Azimuth Distance (km) Brightness Sun altitude
Rises 23:53:23 0° 281° (W) 2,732 6.5 -18.5°
Reaches altitude 10° 23:55:44 10° 289° (WNW) 1,840 5.7 -18.5°
Maximum altitude 23:59:41 40° 359° (N) 831 4.3 -18.5°
Drops below altitude 10° 00:03:39 10° 70° (ENE) 1,846 5.8 -18.4°
Sets 00:06:00 0° 78° (ENE) 2,743 6.6 -18.4°
